Year,Month,Day,Hour,Minute,Value (Times are PST for temperature in C)
2012,07,24,00,00,14.30
2012,07,24,00,01,14.30
2012,07,24,00,02,14.30
2012,07,24,00,03,14.30
2012,07,24,00,04,14.20
2012,07,24,00,06,14.20
2012,07,24,00,07,14.20
2012,07,24,00,08,14.20
2012,07,24,00,10,14.20
2012,07,24,00,11,14.20
2012,07,24,00,12,14.20
2012,07,24,00,13,14.20
2012,07,24,00,14,14.20
2012,07,24,00,15,14.20
2012,07,24,00,16,14.20
2012,07,24,00,17,14.20
2012,07,24,00,18,14.20
2012,07,24,00,19,14.20
2012,07,24,00,20,14.20
2012,07,24,00,21,14.20
2012,07,24,00,22,14.20
2012,07,24,00,23,14.20
2012,07,24,00,25,14.20
2012,07,24,00,26,14.20
2012,07,24,00,28,14.20
2012,07,24,00,29,14.20
2012,07,24,00,30,14.20
2012,07,24,00,31,14.20
2012,07,24,00,33,14.20
2012,07,24,00,34,14.20
2012,07,24,00,35,14.20
2012,07,24,00,37,14.20
2012,07,24,00,38,14.20
2012,07,24,00,40,14.20
2012,07,24,00,41,14.20
2012,07,24,00,42,14.20
2012,07,24,00,44,14.20
2012,07,24,00,45,14.20
2012,07,24,00,47,14.20
2012,07,24,00,48,14.20
2012,07,24,00,49,14.10
2012,07,24,00,50,14.10
2012,07,24,00,51,14.10
2012,07,24,00,53,14.10
2012,07,24,00,54,14.10
2012,07,24,00,55,14.10
2012,07,24,00,57,14.20
2012,07,24,00,58,14.10
2012,07,24,00,59,14.20
2012,07,24,01,00,14.20
2012,07,24,01,01,14.20
2012,07,24,01,02,14.20
2012,07,24,01,04,14.20
2012,07,24,01,05,14.20
2012,07,24,01,06,14.20
2012,07,24,01,07,14.20
2012,07,24,01,08,14.20
2012,07,24,01,09,14.20
2012,07,24,01,10,14.20
2012,07,24,01,11,14.20
2012,07,24,01,12,14.20
2012,07,24,01,13,14.20
2012,07,24,01,14,14.20
2012,07,24,01,15,14.20
2012,07,24,01,16,14.20
2012,07,24,01,17,14.20
2012,07,24,01,18,14.20
2012,07,24,01,20,14.20
2012,07,24,01,21,14.20
2012,07,24,01,22,14.20
2012,07,24,01,23,14.20
2012,07,24,01,24,14.20
2012,07,24,01,25,14.20
2012,07,24,01,26,14.20
2012,07,24,01,27,14.20
2012,07,24,01,28,14.20
2012,07,24,01,30,14.20
2012,07,24,01,31,14.20
2012,07,24,01,32,14.10
2012,07,24,01,34,14.10
2012,07,24,01,35,14.10
2012,07,24,01,36,14.10
2012,07,24,01,37,14.10
2012,07,24,01,38,14.10
2012,07,24,01,39,14.10
2012,07,24,01,40,14.10
2012,07,24,01,41,14.10
2012,07,24,01,42,14.10
2012,07,24,01,43,14.10
2012,07,24,01,44,14.10
2012,07,24,01,45,14.10
2012,07,24,01,46,14.10
2012,07,24,01,47,14.10
2012,07,24,01,48,14.10
2012,07,24,01,49,14.10
2012,07,24,01,51,14.10
2012,07,24,01,52,14.00
2012,07,24,01,54,14.00
2012,07,24,01,55,14.00
2012,07,24,01,56,14.00
2012,07,24,01,58,14.00
2012,07,24,02,00,14.00
2012,07,24,02,02,14.00
2012,07,24,02,03,14.00
2012,07,24,02,04,14.00
2012,07,24,02,06,14.00
2012,07,24,02,07,14.00
2012,07,24,02,08,14.00
2012,07,24,02,09,14.00
2012,07,24,02,11,14.00
2012,07,24,02,12,14.00
2012,07,24,02,13,14.00
2012,07,24,02,15,14.00
2012,07,24,02,16,14.00
2012,07,24,02,17,14.00
2012,07,24,02,18,14.00
2012,07,24,02,20,14.00
2012,07,24,02,21,14.00
2012,07,24,02,23,14.00
2012,07,24,02,24,14.00
2012,07,24,02,25,14.00
2012,07,24,02,26,14.00
2012,07,24,02,28,14.00
2012,07,24,02,29,14.00
2012,07,24,02,31,14.00
2012,07,24,02,32,14.00
2012,07,24,02,34,14.00
2012,07,24,02,35,14.00
2012,07,24,02,36,14.00
2012,07,24,02,38,14.00
2012,07,24,02,39,14.00
2012,07,24,02,40,14.00
2012,07,24,02,42,14.00
2012,07,24,02,43,14.00
2012,07,24,02,44,14.00
2012,07,24,02,46,14.00
2012,07,24,02,47,14.00
2012,07,24,02,48,14.00
2012,07,24,02,49,14.00
2012,07,24,02,51,13.90
2012,07,24,02,52,13.90
2012,07,24,02,53,13.90
2012,07,24,02,54,13.90
2012,07,24,02,56,13.90
2012,07,24,02,57,13.90
2012,07,24,02,59,13.90
2012,07,24,03,00,13.90
2012,07,24,03,01,13.90
2012,07,24,03,02,13.90
2012,07,24,03,03,13.90
2012,07,24,03,05,13.90
2012,07,24,03,06,13.90
2012,07,24,03,07,13.90
2012,07,24,03,09,13.90
2012,07,24,03,11,13.90
2012,07,24,03,12,13.90
2012,07,24,03,14,13.90
2012,07,24,03,15,13.90
2012,07,24,03,16,13.90
2012,07,24,03,18,13.90
2012,07,24,03,19,13.90
2012,07,24,03,20,13.90
2012,07,24,03,22,13.90
2012,07,24,03,23,13.90
2012,07,24,03,25,13.90
2012,07,24,03,26,13.90
2012,07,24,03,27,13.90
2012,07,24,03,28,13.90
2012,07,24,03,29,13.90
2012,07,24,03,30,13.90
2012,07,24,03,31,13.90
2012,07,24,03,32,13.90
2012,07,24,03,33,13.90
2012,07,24,03,34,13.90
2012,07,24,03,36,13.90
2012,07,24,03,37,13.90
2012,07,24,03,38,13.90
2012,07,24,03,40,13.90
2012,07,24,03,41,13.90
2012,07,24,03,42,13.90
2012,07,24,03,44,13.90
2012,07,24,03,45,13.90
2012,07,24,03,46,13.90
2012,07,24,03,48,13.90
2012,07,24,03,49,13.90
2012,07,24,03,50,13.90
2012,07,24,03,51,13.90
2012,07,24,03,53,13.90
2012,07,24,03,55,14.00
2012,07,24,03,56,14.00
2012,07,24,03,57,13.90
2012,07,24,03,58,13.90
2012,07,24,04,00,13.90
2012,07,24,04,01,13.90
2012,07,24,04,02,13.90
2012,07,24,04,04,13.90
2012,07,24,04,05,13.90
2012,07,24,04,07,13.90
2012,07,24,04,08,13.90
2012,07,24,04,09,13.90
2012,07,24,04,11,13.90
2012,07,24,04,12,13.80
2012,07,24,04,13,13.80
2012,07,24,04,14,13.80
2012,07,24,04,16,13.80
2012,07,24,04,17,13.80
2012,07,24,04,18,13.80
2012,07,24,04,20,13.80
2012,07,24,04,21,13.80
2012,07,24,04,22,13.80
2012,07,24,04,23,13.80
2012,07,24,04,25,13.80
2012,07,24,04,27,13.80
2012,07,24,04,28,13.80
2012,07,24,04,29,13.80
2012,07,24,04,30,13.80
2012,07,24,04,31,13.80
2012,07,24,04,32,13.70
2012,07,24,04,34,13.70
2012,07,24,04,35,13.70
2012,07,24,04,36,13.70
2012,07,24,04,38,13.70
2012,07,24,04,39,13.70
2012,07,24,04,41,13.70
2012,07,24,04,42,13.70
2012,07,24,04,43,13.70
2012,07,24,04,44,13.70
2012,07,24,04,46,13.60
2012,07,24,04,48,13.60
2012,07,24,04,49,13.60
2012,07,24,04,51,13.60
2012,07,24,04,52,13.60
2012,07,24,04,53,13.60
2012,07,24,04,54,13.60
2012,07,24,04,55,13.60
2012,07,24,04,57,13.60
2012,07,24,04,58,13.60
2012,07,24,04,59,13.60
2012,07,24,05,00,13.60
2012,07,24,05,02,13.60
2012,07,24,05,03,13.60
2012,07,24,05,04,13.60
2012,07,24,05,05,13.60
2012,07,24,05,06,13.60
2012,07,24,05,07,13.60
2012,07,24,05,08,13.50
2012,07,24,05,09,13.50
2012,07,24,05,10,13.50
2012,07,24,05,11,13.50
2012,07,24,05,12,13.50
2012,07,24,05,13,13.40
2012,07,24,05,14,13.40
2012,07,24,05,15,13.50
2012,07,24,05,16,13.40
2012,07,24,05,17,13.40
2012,07,24,05,18,13.40
2012,07,24,05,19,13.40
2012,07,24,05,20,13.40
2012,07,24,05,21,13.40
2012,07,24,05,22,13.40
2012,07,24,05,23,13.40
2012,07,24,05,24,13.40
2012,07,24,05,25,13.40
2012,07,24,05,26,13.40
2012,07,24,05,27,13.40
2012,07,24,05,28,13.40
2012,07,24,05,29,13.40
2012,07,24,05,30,13.40
2012,07,24,05,31,13.40
2012,07,24,05,32,13.40
2012,07,24,05,33,13.40
2012,07,24,05,34,13.30
2012,07,24,05,35,13.40
2012,07,24,05,36,13.30
2012,07,24,05,37,13.30
2012,07,24,05,38,13.30
2012,07,24,05,39,13.30
2012,07,24,05,40,13.30
2012,07,24,05,41,13.30
2012,07,24,05,42,13.30
2012,07,24,05,43,13.30
2012,07,24,05,44,13.30
2012,07,24,05,45,13.30
2012,07,24,05,46,13.30
2012,07,24,05,47,13.30
2012,07,24,05,48,13.30
2012,07,24,05,49,13.30
2012,07,24,05,50,13.30
2012,07,24,05,52,13.30
2012,07,24,05,53,13.30
2012,07,24,05,54,13.30
2012,07,24,05,55,13.30
2012,07,24,05,56,13.30
2012,07,24,05,57,13.30
2012,07,24,05,59,13.30
2012,07,24,06,00,13.30
2012,07,24,06,01,13.30
2012,07,24,06,02,13.30
2012,07,24,06,03,13.30
2012,07,24,06,04,13.30
2012,07,24,06,05,13.30
2012,07,24,06,06,13.30
2012,07,24,06,07,13.30
2012,07,24,06,08,13.40
2012,07,24,06,09,13.30
2012,07,24,06,10,13.30
2012,07,24,06,11,13.30
2012,07,24,06,12,13.30
2012,07,24,06,13,13.30
2012,07,24,06,14,13.40
2012,07,24,06,15,13.40
2012,07,24,06,16,13.40
2012,07,24,06,17,13.40
2012,07,24,06,18,13.40
2012,07,24,06,19,13.40
2012,07,24,06,20,13.40
2012,07,24,06,21,13.40
2012,07,24,06,22,13.40
2012,07,24,06,23,13.40
2012,07,24,06,24,13.40
2012,07,24,06,25,13.40
2012,07,24,06,26,13.40
2012,07,24,06,27,13.40
2012,07,24,06,28,13.40
2012,07,24,06,29,13.40
2012,07,24,06,31,13.40
2012,07,24,06,32,13.40
2012,07,24,06,33,13.40
2012,07,24,06,34,13.50
2012,07,24,06,35,13.50
2012,07,24,06,36,13.50
2012,07,24,06,37,13.50
2012,07,24,06,38,13.50
2012,07,24,06,39,13.50
2012,07,24,06,40,13.50
2012,07,24,06,41,13.50
2012,07,24,06,42,13.50
2012,07,24,06,43,13.60
2012,07,24,06,44,13.60
2012,07,24,06,45,13.60
2012,07,24,06,46,13.60
2012,07,24,06,47,13.60
2012,07,24,06,48,13.60
2012,07,24,06,50,13.60
2012,07,24,06,51,13.60
2012,07,24,06,52,13.60
2012,07,24,06,54,13.60
2012,07,24,06,55,13.60
2012,07,24,06,56,13.60
2012,07,24,06,57,13.60
2012,07,24,06,58,13.60
2012,07,24,06,59,13.60
2012,07,24,07,00,13.70
2012,07,24,07,01,13.70
2012,07,24,07,03,13.70
2012,07,24,07,05,13.70
2012,07,24,07,07,13.70
2012,07,24,07,08,13.70
2012,07,24,07,09,13.70
2012,07,24,07,11,13.80
2012,07,24,07,12,13.80
2012,07,24,07,13,13.80
2012,07,24,07,14,13.80
2012,07,24,07,15,13.80
2012,07,24,07,17,13.80
2012,07,24,07,18,13.80
2012,07,24,07,20,13.90
2012,07,24,07,21,13.90
2012,07,24,07,22,13.90
2012,07,24,07,24,13.90
2012,07,24,07,25,13.90
2012,07,24,07,26,13.90
2012,07,24,07,28,14.00
2012,07,24,07,30,14.00
2012,07,24,07,32,14.10
2012,07,24,07,34,14.10
2012,07,24,07,35,14.10
2012,07,24,07,36,14.10
2012,07,24,07,37,14.10
2012,07,24,07,39,14.20
2012,07,24,07,40,14.20
2012,07,24,07,41,14.20
2012,07,24,07,43,14.30
2012,07,24,07,44,14.30
2012,07,24,07,45,14.30
2012,07,24,07,47,14.30
2012,07,24,07,48,14.30
2012,07,24,07,49,14.30
2012,07,24,07,50,14.30
2012,07,24,07,52,14.30
2012,07,24,07,53,14.30
2012,07,24,07,54,14.30
2012,07,24,07,55,14.30
2012,07,24,07,56,14.40
2012,07,24,07,57,14.40
2012,07,24,07,59,14.40
2012,07,24,08,00,14.40
2012,07,24,08,01,14.40
2012,07,24,08,02,14.40
2012,07,24,08,03,14.40
2012,07,24,08,04,14.40
2012,07,24,08,05,14.40
2012,07,24,08,06,14.40
2012,07,24,08,08,14.40
2012,07,24,08,10,14.50
2012,07,24,08,12,14.50
2012,07,24,08,13,14.50
2012,07,24,08,15,14.60
2012,07,24,08,16,14.60
2012,07,24,08,17,14.60
2012,07,24,08,18,14.60
2012,07,24,08,19,14.70
2012,07,24,08,20,14.70
2012,07,24,08,22,14.70
2012,07,24,08,24,14.70
2012,07,24,08,25,14.70
2012,07,24,08,27,14.70
2012,07,24,08,28,14.80
2012,07,24,08,29,14.80
2012,07,24,08,31,14.90
2012,07,24,08,32,14.90
2012,07,24,08,34,15.00
2012,07,24,08,35,15.00
2012,07,24,08,37,15.00
2012,07,24,08,38,15.00
2012,07,24,08,39,15.00
2012,07,24,08,40,15.00
2012,07,24,08,41,15.00
2012,07,24,08,42,15.00
2012,07,24,08,43,15.00
2012,07,24,08,44,15.00
2012,07,24,08,45,15.00
2012,07,24,08,46,15.00
2012,07,24,08,48,15.00
2012,07,24,08,49,15.00
2012,07,24,08,50,15.00
2012,07,24,08,51,15.00
2012,07,24,08,53,15.00
2012,07,24,08,54,15.00
2012,07,24,08,55,15.00
2012,07,24,08,56,15.00
2012,07,24,08,57,15.10
2012,07,24,08,58,15.10
2012,07,24,08,59,15.10
2012,07,24,09,00,15.10
2012,07,24,09,01,15.20
2012,07,24,09,02,15.10
2012,07,24,09,04,15.20
2012,07,24,09,05,15.20
2012,07,24,09,07,15.30
2012,07,24,09,09,15.30
2012,07,24,09,10,15.30
2012,07,24,09,12,15.30
2012,07,24,09,13,15.30
2012,07,24,09,14,15.40
2012,07,24,09,16,15.40
2012,07,24,09,17,15.40
2012,07,24,09,18,15.40
2012,07,24,09,20,15.50
2012,07,24,09,21,15.50
2012,07,24,09,22,15.60
2012,07,24,09,24,15.60
2012,07,24,09,25,15.70
2012,07,24,09,26,15.70
2012,07,24,09,28,15.80
2012,07,24,09,29,15.80
2012,07,24,09,30,15.80
2012,07,24,09,31,15.80
2012,07,24,09,32,15.80
2012,07,24,09,33,15.80
2012,07,24,09,35,15.80
2012,07,24,09,36,15.80
2012,07,24,09,37,15.90
2012,07,24,09,39,15.90
2012,07,24,09,40,15.90
2012,07,24,09,41,16.00
2012,07,24,09,42,16.10
2012,07,24,09,43,16.10
2012,07,24,09,44,16.10
2012,07,24,09,45,16.10
2012,07,24,09,47,16.20
2012,07,24,09,48,16.20
2012,07,24,09,49,16.20
2012,07,24,09,50,16.30
2012,07,24,09,52,16.30
2012,07,24,09,53,16.30
2012,07,24,09,55,16.40
2012,07,24,09,56,16.40
2012,07,24,09,57,16.40
2012,07,24,09,59,16.50
2012,07,24,10,00,16.50
2012,07,24,10,01,16.50
2012,07,24,10,02,16.60
2012,07,24,10,03,16.60
2012,07,24,10,04,16.60
2012,07,24,10,05,16.60
2012,07,24,10,07,16.70
2012,07,24,10,08,16.70
2012,07,24,10,09,16.70
2012,07,24,10,10,16.70
2012,07,24,10,11,16.70
2012,07,24,10,13,16.80
2012,07,24,10,14,16.80
2012,07,24,10,15,16.80
2012,07,24,10,17,16.80
2012,07,24,10,19,16.80
2012,07,24,10,20,16.80
2012,07,24,10,22,16.90
2012,07,24,10,23,16.90
2012,07,24,10,24,16.90
2012,07,24,10,25,17.00
2012,07,24,10,27,17.00
2012,07,24,10,28,17.10
2012,07,24,10,30,17.10
2012,07,24,10,31,17.20
2012,07,24,10,32,17.20
2012,07,24,10,33,17.30
2012,07,24,10,35,17.40
2012,07,24,10,36,17.40
2012,07,24,10,37,17.40
2012,07,24,10,38,17.50
2012,07,24,10,40,17.60
2012,07,24,10,41,17.60
2012,07,24,10,42,17.60
2012,07,24,10,43,17.60
2012,07,24,10,44,17.70
2012,07,24,10,45,17.70
2012,07,24,10,46,17.70
2012,07,24,10,48,17.80
2012,07,24,10,50,17.80
2012,07,24,10,51,17.80
2012,07,24,10,52,17.80
2012,07,24,10,54,17.80
2012,07,24,10,55,17.80
2012,07,24,10,57,17.90
2012,07,24,10,58,17.90
2012,07,24,10,59,17.90
2012,07,24,11,00,17.90
2012,07,24,11,01,18.00
2012,07,24,11,02,18.00
2012,07,24,11,03,18.10
2012,07,24,11,04,18.10
2012,07,24,11,05,18.10
2012,07,24,11,07,18.20
2012,07,24,11,09,18.30
2012,07,24,11,11,18.30
2012,07,24,11,12,18.40
2012,07,24,11,13,18.40
2012,07,24,11,14,18.50
2012,07,24,11,16,18.60
2012,07,24,11,17,18.60
2012,07,24,11,18,18.60
2012,07,24,11,19,18.60
2012,07,24,11,21,18.60
2012,07,24,11,22,18.60
2012,07,24,11,23,18.70
2012,07,24,11,25,18.80
2012,07,24,11,26,18.80
2012,07,24,11,28,18.90
2012,07,24,11,29,19.00
2012,07,24,11,30,19.10
2012,07,24,11,32,19.20
2012,07,24,11,33,19.20
2012,07,24,11,34,19.20
2012,07,24,11,35,19.20
2012,07,24,11,36,19.30
2012,07,24,11,37,19.30
2012,07,24,11,38,19.30
2012,07,24,11,40,19.30
2012,07,24,11,41,19.40
2012,07,24,11,42,19.40
2012,07,24,11,43,19.40
2012,07,24,11,44,19.40
2012,07,24,11,46,19.40
2012,07,24,11,47,19.50
2012,07,24,11,48,19.60
2012,07,24,11,49,19.60
2012,07,24,11,51,19.70
2012,07,24,11,52,19.70
2012,07,24,11,53,19.80
2012,07,24,11,54,19.80
2012,07,24,11,55,19.90
2012,07,24,11,56,19.90
2012,07,24,11,57,19.90
2012,07,24,11,59,20.00
2012,07,24,12,00,20.10
2012,07,24,12,01,20.10
2012,07,24,12,02,20.20
2012,07,24,12,03,20.30
2012,07,24,12,04,20.30
2012,07,24,12,05,20.40
2012,07,24,12,06,20.40
2012,07,24,12,07,20.50
2012,07,24,12,08,20.50
2012,07,24,12,09,20.60
2012,07,24,12,11,20.50
2012,07,24,12,13,20.30
2012,07,24,12,15,20.30
2012,07,24,12,17,20.30
2012,07,24,12,18,20.30
2012,07,24,12,19,20.30
2012,07,24,12,21,20.30
2012,07,24,12,22,20.30
2012,07,24,12,23,20.40
2012,07,24,12,24,20.40
2012,07,24,12,25,20.40
2012,07,24,12,26,20.40
2012,07,24,12,27,20.40
2012,07,24,12,28,20.50
2012,07,24,12,29,20.60
2012,07,24,12,30,20.60
2012,07,24,12,31,20.60
2012,07,24,12,32,20.60
2012,07,24,12,33,20.60
2012,07,24,12,34,20.60
2012,07,24,12,35,20.60
2012,07,24,12,36,20.70
2012,07,24,12,37,20.70
2012,07,24,12,38,20.60
2012,07,24,12,40,20.70
2012,07,24,12,41,20.60
2012,07,24,12,43,20.60
2012,07,24,12,45,20.60
2012,07,24,12,46,20.60
2012,07,24,12,47,20.60
2012,07,24,12,48,20.60
2012,07,24,12,49,20.60
2012,07,24,12,50,20.60
2012,07,24,12,52,20.60
2012,07,24,12,53,20.60
2012,07,24,12,55,20.50
2012,07,24,12,56,20.50
2012,07,24,12,57,20.40
2012,07,24,12,58,20.40
2012,07,24,12,59,20.40
2012,07,24,13,00,20.40
2012,07,24,13,01,20.50
2012,07,24,13,02,20.50
2012,07,24,13,03,20.60
2012,07,24,13,04,20.60
2012,07,24,13,05,20.60
2012,07,24,13,06,20.60
2012,07,24,13,07,20.70
2012,07,24,13,08,20.70
2012,07,24,13,10,20.70
2012,07,24,13,11,20.70
2012,07,24,13,12,20.70
2012,07,24,13,14,20.70
2012,07,24,13,15,20.70
2012,07,24,13,17,20.60
2012,07,24,13,18,20.60
2012,07,24,13,19,20.40
2012,07,24,13,21,20.30
2012,07,24,13,23,20.30
2012,07,24,13,24,20.30
2012,07,24,13,25,20.30
2012,07,24,13,26,20.30
2012,07,24,13,28,20.30
2012,07,24,13,29,20.40
2012,07,24,13,30,20.40
2012,07,24,13,32,20.50
2012,07,24,13,33,20.50
2012,07,24,13,34,20.50
2012,07,24,13,35,20.50
2012,07,24,13,37,20.40
2012,07,24,13,38,20.50
2012,07,24,13,39,20.50
2012,07,24,13,40,20.50
2012,07,24,13,41,20.50
2012,07,24,13,42,20.60
2012,07,24,13,43,20.60
2012,07,24,13,45,20.60
2012,07,24,13,46,20.60
2012,07,24,13,48,20.60
2012,07,24,13,49,20.70
2012,07,24,13,50,20.70
2012,07,24,13,52,20.70
2012,07,24,13,53,20.70
2012,07,24,13,55,20.60
2012,07,24,13,56,20.60
2012,07,24,13,57,20.60
2012,07,24,13,59,20.60
2012,07,24,14,00,20.60
2012,07,24,14,01,20.60
2012,07,24,14,02,20.70
2012,07,24,14,03,20.70
2012,07,24,14,04,20.70
2012,07,24,14,05,20.70
2012,07,24,14,06,20.70
2012,07,24,14,07,20.70
2012,07,24,14,08,20.70
2012,07,24,14,09,20.70
2012,07,24,14,11,20.70
2012,07,24,14,12,20.70
2012,07,24,14,13,20.60
2012,07,24,14,14,20.70
2012,07,24,14,15,20.70
2012,07,24,14,17,20.70
2012,07,24,14,19,20.70
2012,07,24,14,21,20.80
2012,07,24,14,23,20.70
2012,07,24,14,24,20.70
2012,07,24,14,26,20.60
2012,07,24,14,27,20.60
2012,07,24,14,28,20.60
2012,07,24,14,29,20.60
2012,07,24,14,31,20.50
2012,07,24,14,34,20.60
2012,07,24,14,35,20.60
2012,07,24,14,36,20.70
2012,07,24,14,37,20.70
2012,07,24,14,39,20.80
2012,07,24,14,40,20.80
2012,07,24,14,41,20.80
2012,07,24,14,42,20.90
2012,07,24,14,43,20.90
2012,07,24,14,44,20.90
2012,07,24,14,45,20.90
2012,07,24,14,46,20.90
2012,07,24,14,48,20.90
2012,07,24,14,50,20.90
2012,07,24,14,52,20.80
2012,07,24,14,53,20.70
2012,07,24,14,54,20.70
2012,07,24,14,55,20.70
2012,07,24,14,56,20.70
2012,07,24,14,57,20.70
2012,07,24,14,58,20.60
2012,07,24,15,00,20.60
2012,07,24,15,01,20.60
2012,07,24,15,02,20.60
2012,07,24,15,03,20.50
2012,07,24,15,04,20.50
2012,07,24,15,05,20.40
2012,07,24,15,06,20.40
2012,07,24,15,07,20.40
2012,07,24,15,08,20.40
2012,07,24,15,09,20.30
2012,07,24,15,10,20.30
2012,07,24,15,11,20.30
2012,07,24,15,13,20.30
2012,07,24,15,14,20.30
2012,07,24,15,15,20.30
2012,07,24,15,17,20.30
2012,07,24,15,18,20.30
2012,07,24,15,19,20.30
2012,07,24,15,20,20.30
2012,07,24,15,21,20.30
2012,07,24,15,23,20.30
2012,07,24,15,24,20.30
2012,07,24,15,25,20.30
2012,07,24,15,27,20.20
2012,07,24,15,28,20.20
2012,07,24,15,29,20.20
2012,07,24,15,30,20.20
2012,07,24,15,31,20.20
2012,07,24,15,32,20.30
2012,07,24,15,33,20.30
2012,07,24,15,34,20.30
2012,07,24,15,35,20.30
2012,07,24,15,36,20.20
2012,07,24,15,38,20.20
2012,07,24,15,39,20.20
2012,07,24,15,40,20.20
2012,07,24,15,42,20.10
2012,07,24,15,43,20.10
2012,07,24,15,45,20.10
2012,07,24,15,46,20.10
2012,07,24,15,47,20.00
2012,07,24,15,48,20.00
2012,07,24,15,49,20.00
2012,07,24,15,50,20.00
2012,07,24,15,52,20.00
2012,07,24,15,53,20.10
2012,07,24,15,54,20.10
2012,07,24,15,55,20.10
2012,07,24,15,56,20.10
2012,07,24,15,57,20.10
2012,07,24,15,58,20.20
2012,07,24,15,59,20.20
2012,07,24,16,00,20.30
2012,07,24,16,01,20.30
2012,07,24,16,02,20.40
2012,07,24,16,03,20.40
2012,07,24,16,04,20.40
2012,07,24,16,05,20.50
2012,07,24,16,06,20.50
2012,07,24,16,07,20.60
2012,07,24,16,08,20.60
2012,07,24,16,09,20.70
2012,07,24,16,10,20.70
2012,07,24,16,11,20.80
2012,07,24,16,12,20.80
2012,07,24,16,13,20.80
2012,07,24,16,15,20.80
2012,07,24,16,16,20.90
2012,07,24,16,17,21.00
2012,07,24,16,18,21.10
2012,07,24,16,19,21.10
2012,07,24,16,20,21.20
2012,07,24,16,21,21.20
2012,07,24,16,22,21.30
2012,07,24,16,23,21.30
2012,07,24,16,24,21.40
2012,07,24,16,25,21.40
2012,07,24,16,26,21.40
2012,07,24,16,27,21.50
2012,07,24,16,28,21.60
2012,07,24,16,29,21.60
2012,07,24,16,30,21.60
2012,07,24,16,31,21.70
2012,07,24,16,32,21.70
2012,07,24,16,33,21.70
2012,07,24,16,34,21.70
2012,07,24,16,35,21.80
2012,07,24,16,36,21.80
2012,07,24,16,37,21.80
2012,07,24,16,39,21.80
2012,07,24,16,40,21.80
2012,07,24,16,42,21.80
2012,07,24,16,43,21.80
2012,07,24,16,44,21.80
2012,07,24,16,45,21.80
2012,07,24,16,46,21.80
2012,07,24,16,47,21.70
2012,07,24,16,48,21.70
2012,07,24,16,49,21.80
2012,07,24,16,51,21.80
2012,07,24,16,52,21.80
2012,07,24,16,53,21.80
2012,07,24,16,54,21.80
2012,07,24,16,55,21.80
2012,07,24,16,56,21.80
2012,07,24,16,57,21.90
2012,07,24,16,58,21.90
2012,07,24,16,59,21.90
2012,07,24,17,00,21.90
2012,07,24,17,02,21.90
2012,07,24,17,03,21.90
2012,07,24,17,05,21.90
2012,07,24,17,07,22.00
2012,07,24,17,09,22.10
2012,07,24,17,10,22.10
2012,07,24,17,11,22.10
2012,07,24,17,13,22.10
2012,07,24,17,15,22.10
2012,07,24,17,17,22.10
2012,07,24,17,18,22.00
2012,07,24,17,19,22.00
2012,07,24,17,21,21.90
2012,07,24,17,23,21.90
2012,07,24,17,24,21.90
2012,07,24,17,26,21.90
2012,07,24,17,27,21.90
2012,07,24,17,28,21.90
2012,07,24,17,29,21.90
2012,07,24,17,30,21.90
2012,07,24,17,31,21.90
2012,07,24,17,33,21.90
2012,07,24,17,35,21.80
2012,07,24,17,37,21.80
2012,07,24,17,39,21.80
2012,07,24,17,40,21.80
2012,07,24,17,42,21.80
2012,07,24,17,43,21.80
2012,07,24,17,44,21.80
2012,07,24,17,45,21.80
2012,07,24,17,47,21.90
2012,07,24,17,48,22.00
2012,07,24,17,50,22.10
2012,07,24,17,52,22.20
2012,07,24,17,53,22.20
2012,07,24,17,54,22.20
2012,07,24,17,55,22.20
2012,07,24,17,56,22.20
2012,07,24,17,58,22.30
2012,07,24,17,59,22.20
2012,07,24,18,00,22.20
2012,07,24,18,01,22.30
2012,07,24,18,02,22.20
2012,07,24,18,03,22.20
2012,07,24,18,04,22.10
2012,07,24,18,05,22.10
2012,07,24,18,06,22.10
2012,07,24,18,07,22.00
2012,07,24,18,08,22.00
2012,07,24,18,09,22.10
2012,07,24,18,10,22.10
2012,07,24,18,11,22.10
2012,07,24,18,13,22.10
2012,07,24,18,14,22.10
2012,07,24,18,15,22.10
2012,07,24,18,16,22.10
2012,07,24,18,17,22.10
2012,07,24,18,18,22.10
2012,07,24,18,19,22.10
2012,07,24,18,20,22.10
2012,07,24,18,21,22.10
2012,07,24,18,22,22.10
2012,07,24,18,23,22.10
2012,07,24,18,24,22.10
2012,07,24,18,25,22.10
2012,07,24,18,26,22.10
2012,07,24,18,27,22.10
2012,07,24,18,28,22.10
2012,07,24,18,29,22.10
2012,07,24,18,30,22.10
2012,07,24,18,31,22.00
2012,07,24,18,32,21.90
2012,07,24,18,34,21.90
2012,07,24,18,35,21.90
2012,07,24,18,37,21.90
2012,07,24,18,38,21.90
2012,07,24,18,40,21.90
2012,07,24,18,41,21.90
2012,07,24,18,43,21.90
2012,07,24,18,45,22.00
2012,07,24,18,46,22.00
2012,07,24,18,48,22.10
2012,07,24,18,49,22.10
2012,07,24,18,50,22.10
2012,07,24,18,51,22.10
2012,07,24,18,52,22.10
2012,07,24,18,53,22.20
2012,07,24,18,54,22.20
2012,07,24,18,55,22.20
2012,07,24,18,57,22.20
2012,07,24,18,58,22.20
2012,07,24,19,00,22.20
2012,07,24,19,01,22.10
2012,07,24,19,02,22.10
2012,07,24,19,03,22.00
2012,07,24,19,04,22.00
2012,07,24,19,05,21.90
2012,07,24,19,06,21.80
2012,07,24,19,07,21.80
2012,07,24,19,08,21.80
2012,07,24,19,09,21.70
2012,07,24,19,11,21.70
2012,07,24,19,12,21.70
2012,07,24,19,14,21.70
2012,07,24,19,15,21.70
2012,07,24,19,16,21.70
2012,07,24,19,17,21.70
2012,07,24,19,19,21.60
2012,07,24,19,20,21.60
2012,07,24,19,22,21.50
2012,07,24,19,23,21.50
2012,07,24,19,24,21.50
2012,07,24,19,26,21.50
2012,07,24,19,27,21.50
2012,07,24,19,29,21.40
2012,07,24,19,31,21.40
2012,07,24,19,32,21.40
2012,07,24,19,34,21.40
2012,07,24,19,36,21.30
2012,07,24,19,38,21.30
2012,07,24,19,39,21.30
2012,07,24,19,40,21.20
2012,07,24,19,42,21.20
2012,07,24,19,43,21.20
2012,07,24,19,45,21.20
2012,07,24,19,46,21.20
2012,07,24,19,47,21.20
2012,07,24,19,49,21.20
2012,07,24,19,50,21.20
2012,07,24,19,51,21.10
2012,07,24,19,52,21.10
2012,07,24,19,53,21.10
2012,07,24,19,55,21.10
2012,07,24,19,56,21.10
2012,07,24,19,57,21.10
2012,07,24,19,58,21.10
2012,07,24,19,59,21.00
2012,07,24,20,00,21.00
2012,07,24,20,01,20.90
2012,07,24,20,02,20.90
2012,07,24,20,04,20.90
2012,07,24,20,05,20.80
2012,07,24,20,07,20.80
2012,07,24,20,08,20.80
2012,07,24,20,10,20.70
2012,07,24,20,11,20.70
2012,07,24,20,12,20.70
2012,07,24,20,14,20.60
2012,07,24,20,15,20.60
2012,07,24,20,16,20.60
2012,07,24,20,18,20.40
2012,07,24,20,20,20.40
2012,07,24,20,21,20.40
2012,07,24,20,23,20.30
2012,07,24,20,24,20.30
2012,07,24,20,25,20.30
2012,07,24,20,27,20.20
2012,07,24,20,28,20.20
2012,07,24,20,29,20.10
2012,07,24,20,31,20.10
2012,07,24,20,32,20.00
2012,07,24,20,34,19.90
2012,07,24,20,35,19.90
2012,07,24,20,36,19.90
2012,07,24,20,37,19.90
2012,07,24,20,39,19.80
2012,07,24,20,41,19.80
2012,07,24,20,42,19.80
2012,07,24,20,43,19.80
2012,07,24,20,45,19.70
2012,07,24,20,46,19.70
2012,07,24,20,47,19.70
2012,07,24,20,49,19.70
2012,07,24,20,50,19.60
2012,07,24,20,51,19.60
2012,07,24,20,53,19.60
2012,07,24,20,54,19.60
2012,07,24,20,55,19.60
2012,07,24,20,57,19.50
2012,07,24,20,58,19.50
2012,07,24,20,59,19.40
2012,07,24,21,00,19.40
2012,07,24,21,01,19.40
2012,07,24,21,02,19.40
2012,07,24,21,03,19.40
2012,07,24,21,04,19.40
2012,07,24,21,05,19.30
2012,07,24,21,06,19.30
2012,07,24,21,07,19.30
2012,07,24,21,09,19.30
2012,07,24,21,10,19.30
2012,07,24,21,12,19.30
2012,07,24,21,13,19.30
2012,07,24,21,14,19.30
2012,07,24,21,16,19.20
2012,07,24,21,17,19.30
2012,07,24,21,18,19.20
2012,07,24,21,20,19.20
2012,07,24,21,21,19.20
2012,07,24,21,22,19.20
2012,07,24,21,24,19.20
2012,07,24,21,25,19.20
2012,07,24,21,26,19.20